Friday Harbor, WA
on Sunday, November 11, 2012

Sunday
Previous Day Next Day
Daily Summary
 ActualAverageRecord
Temperature
Mean Temperature °F °F  
Max Temperature 46°F 49°F 55°F (1999)
Min Temperature 35°F 38°F 27°F (2000)
Degree Days
Heating Degree Days 24    
Moisture
Dew Point 34°F   
Average Humidity 73    
Maximum Humidity 86    
Minimum Humidity 60    
Precipitation
Precipitation 0.13 in in in ()
Wind
Wind Speed 7 mph   
Max Wind Speed 16 mph   
Max Gust Speed 24 mph   
Visibility 10 miles   
Events Rain   
Averages and records for this station are not official NWS values.
Key: T is trace of precipitation, MM is missing value
Source: NWS Daily Summary
Seasonal Weather Averages
Time(PST)TemperatureDew PointHumidity Pressure Visibility Wind DirectionWind SpeedGust SpeedPrecipitationEvents Conditions
12:53 AM 35.1°F 28.9°F 78% 30.24 in 10.0 miles Calm Calm - N/A   Clear
1:53 AM 37.0°F 30.0°F 76% 30.24 in 10.0 miles NE 3.5 mph - N/A   Clear
2:53 AM 37.9°F 30.0°F 73% 30.23 in 10.0 miles NNE 3.5 mph - N/A   Clear
3:53 AM 39.0°F 30.9°F 73% 30.22 in 10.0 miles East 9.2 mph - N/A   Clear
4:53 AM 39.0°F 30.9°F 73% 30.22 in 10.0 miles East 6.9 mph - N/A   Mostly Cloudy
5:53 AM 39.9°F 28.9°F 65% 30.21 in 10.0 miles East 8.1 mph - N/A   Overcast
6:53 AM 39.9°F 28.9°F 65% 30.22 in 10.0 miles East 6.9 mph - N/A   Overcast
7:10 AM 41.0°F 28.4°F 61% 30.21 in 10.0 miles ENE 5.8 mph - N/A   Overcast
7:40 AM 41.0°F 28.4°F 61% 30.20 in 10.0 miles ENE 5.8 mph - N/A   Overcast
7:53 AM 41.0°F 28.9°F 62% 30.21 in 10.0 miles ENE 6.9 mph - N/A   Overcast
8:35 AM 41.0°F 28.4°F 61% 30.20 in 10.0 miles ENE 5.8 mph - N/A   Overcast
8:53 AM 41.0°F 30.0°F 65% 30.21 in 10.0 miles NE 6.9 mph - N/A   Overcast
9:21 AM 42.8°F 30.2°F 61% 30.21 in 10.0 miles NE 6.9 mph - N/A   Overcast
9:35 AM 42.8°F 30.2°F 61% 30.21 in 10.0 miles NE 6.9 mph - N/A   Overcast
9:53 AM 42.1°F 30.0°F 62% 30.22 in 10.0 miles ENE 5.8 mph - N/A   Overcast
10:53 AM 44.1°F 30.9°F 60% 30.21 in 10.0 miles East 10.4 mph - N/A   Overcast
11:53 AM 44.1°F 34.0°F 68% 30.19 in 10.0 miles East 10.4 mph 17.3 mph N/A   Overcast
12:13 PM 42.8°F 35.6°F 76% 30.18 in 10.0 miles ENE 8.1 mph - 0.00 in Rain Light Rain
12:53 PM 44.1°F 35.1°F 71% 30.17 in 10.0 miles East 11.5 mph 18.4 mph 0.00 in   Overcast
1:53 PM 44.1°F 36.0°F 73% 30.14 in 10.0 miles East 15.0 mph - N/A   Overcast
2:53 PM 45.0°F 37.0°F 74% 30.13 in 10.0 miles East 12.7 mph 19.6 mph N/A   Overcast
3:53 PM 46.0°F 37.0°F 71% 30.11 in 10.0 miles East 12.7 mph - N/A   Overcast
4:53 PM 45.0°F 39.0°F 80% 30.08 in 6.0 miles East 16.1 mph 21.9 mph 0.00 in Rain Light Rain
5:53 PM 44.1°F 39.9°F 85% 30.07 in 8.0 miles East 16.1 mph 23.0 mph 0.04 in Rain Light Rain
6:03 PM 44.6°F 39.2°F 81% 30.06 in 7.0 miles East 15.0 mph - 0.00 in Rain Light Rain
6:53 PM 45.0°F 41.0°F 86% 30.05 in 6.0 miles ESE 16.1 mph - 0.06 in Rain Light Rain
7:53 PM 45.0°F 41.0°F 86% 30.04 in 10.0 miles East 13.8 mph - 0.03 in Rain Light Rain
8:53 PM 45.0°F 41.0°F 86% 30.04 in 10.0 miles East 10.4 mph - 0.00 in   Overcast
9:53 PM 46.0°F 42.1°F 86% 30.04 in 10.0 miles East 15.0 mph 21.9 mph N/A   Overcast
10:53 PM 46.0°F 42.1°F 86% 30.04 in 10.0 miles ESE 15.0 mph - 0.00 in   Overcast
11:53 PM 46.9°F 43.0°F 86% 30.04 in 10.0 miles ESE 15.0 mph 24.2 mph 0.00 in   Overcast
Moon Phase
Nov. 11 Nov. 13 Nov. 20 Nov. 28 Dec. 06
Sunrise:07:14 AM (PST) Moon Rise:04:25 AM (PST)11/11
Sunset:04:36 PM (PST) Moon Set:03:11 PM (PST)11/11

Copyright © 2014 The Weather Underground, Inc.